Flag for Australia Weather past 2 weeks in Tamworth, New South Wales, Australia

Now
72 °F

Clear.


Feels Like: 74 °F
Forecast: 44 / 80 °F
Wind: No wind

Location: Tamworth Airport

Current Time: Mar 27, 2015 at 7:27:36 PM

Latest Report: Mar 27, 2015 at 7:00 PM


Visibility: N/A

Pressure: 30.09 "Hg

Humidity: 17%

Dew point: 25 °F

Location of TamworthLocation

Historic Weather in Tamworth — Graph

°F

Tamworth temperature yesterday

Maximum temperature yesterday: 82 °F (at 2:00 PM)
Minimum temperature yesterday: 48 °F (at 6:00 AM)
Average temperature yesterday: 67 °F

Past Weeks' High & Low Weather Summary

 TemperatureHumidityPressure
High100 °F (Mar 20, 3:00 PM)94% (Mar 24, 7:00 PM)30.21 "Hg (Mar 24, 7:00 PM)
Low48 °F (Mar 26, 6:00 AM)12% (Mar 27, 4:00 PM)29.74 "Hg (Mar 18, 4:00 PM)
Average72 °F52%29.98 "Hg
* Reported Mar 12 6:00 PM — Mar 27 6:00 PM, Tamworth, Weather by CustomWeather, © 2015

Note: Actual official high and low records may vary slightly from our data, if they occured in-between our weather recording intervals... More about our weather records

Advertising

Tamworth weather history for previous 24 hours

 ConditionsComfort  
Time TempWeatherWind HumidityBarometerVisibility
6:00 PM
Fri, Mar 27
79 °FSunny.2 mph13%30.09 "HgN/A
5:00 PM79 °FSunny.8 mph12%30.09 "HgN/A
4:30 PM79 °FSunny.8 mph15%30.09 "HgN/A
4:00 PM79 °FSunny.6 mph12%30.09 "HgN/A
3:30 PM79 °FSunny.7 mph13%30.09 "HgN/A
3:00 PM77 °FSunny.10 mph15%30.12 "HgN/A
1:30 PM73 °FSunny.5 mph19%30.15 "HgN/A
1:00 PM73 °FSunny.6 mph22%30.15 "HgN/A
12:00 PM68 °FSunny.6 mph26%30.18 "HgN/A
11:30 AM68 °FSunny.6 mph30%30.21 "HgN/A
11:00 AM64 °FSunny.6 mph34%30.21 "HgN/A
10:30 AM64 °FSunny.3 mph37%30.21 "HgN/A
10:00 AM61 °FSunny.5 mph42%30.21 "HgN/A
9:30 AM57 °FSunny.2 mph51%30.21 "HgN/A
9:00 AM55 °FSunny.3 mph63%30.21 "HgN/A
8:30 AM52 °FSunny.3 mph77%30.21 "HgN/A
8:00 AM50 °FSunny.5 mph76%30.18 "HgN/A
7:30 AM48 °FSunny.5 mph82%30.18 "HgN/A
7:00 AM48 °FClear.No wind71%30.18 "HgN/A
6:00 AM48 °FClear.No wind71%30.15 "HgN/A
5:30 AM50 °FClear.No wind71%30.15 "HgN/A
5:00 AM48 °FClear.2 mph76%30.15 "HgN/A
4:00 AM50 °FClear.3 mph71%30.15 "HgN/A
3:30 AM52 °FClear.No wind67%30.15 "HgN/A
3:00 AM54 °FClear.1 mph58%30.15 "HgN/A
2:00 AM55 °FClear.8 mph55%30.15 "HgN/A
1:30 AM55 °FClear.6 mph55%30.15 "HgN/A
1:00 AM57 °FClear.6 mph48%30.15 "HgN/A
12:30 AM59 °FClear.5 mph48%30.15 "HgN/A
12:00 AM57 °FPassing clouds.6 mph51%30.15 "HgN/A
11:00 PM
Thu, Mar 26
61 °FPassing clouds.3 mph45%30.15 "HgN/A
10:30 PM61 °FPassing clouds.5 mph45%30.15 "HgN/A
10:00 PM64 °FPassing clouds.3 mph40%30.12 "HgN/A
9:30 PM64 °FClear.8 mph34%30.12 "HgN/A
9:00 PM68 °FClear.10 mph30%30.09 "HgN/A
8:30 PM68 °FClear.12 mph33%30.09 "HgN/A
8:00 PM70 °FClear.3 mph29%30.07 "HgN/A
7:30 PM72 °FClear.6 mph27%30.07 "HgN/A
7:00 PM72 °FSunny.9 mph27%30.07 "HgN/A
Weather by CustomWeather, © 2015

See weather overviewHow to use our weather pages